Location: Banios
(43.0451°N, 0.2335°E)
Time: 20:26:08
(UTC+00:00)

Lacrosse 5 rocket - Pass Details

Date: 25 January 2021
Orbit: 465 x 630 km, 57.0° (Epoch: 02 March)

Event Time Altitude Azimuth Distance (km) Brightness Sun altitude
Exits shadow 04:50:16 33° 111° (ESE) 850 2.7 -27.4°
Drops below altitude 10° 04:52:29 10° 123° (ESE) 1,672 4.5 -27.0°
Sets 04:54:36 0° 127° (SE) 2,529 5.5 -26.7°
